Location: San Gennaro Vesuviano
(40.8833°N, 14.5333°E)
Time: 22:34:50
(UTC+00:00)

Cosmos 1633 - Pass Details

Date: 22 April 2021
Orbit: 461 x 478 km, 82.5° (Epoch: 10 May)

Event Time Altitude Azimuth Distance (km) Brightness Sun altitude
Rises 19:02:56 0° 2° (N) 2,528 6.6 -13.6°
Reaches altitude 10° 19:05:11 10° 12° (NNE) 1,642 5.5 -14.0°
Maximum altitude 19:08:26 32° 77° (ENE) 833 3.4 -14.5°
Enters shadow 19:09:18 28° 107° (ESE) 913 3.4 -14.6°
